Skip Page Navigation
NASA JPL Caltech
NASA Logo - Jet Propulsion Laboratory + View the NASA Portal
+ Near-Earth Object (NEO) Program
Search JPL
JPL Home Earth Solar System Stars & Galaxies Technology
JPL Solar System Dynamics
BODIES ORBITS EPHEMERIDES TOOLS PHYSICAL DATA DISCOVERY FAQ SITE MAP
JPL Small-Body Database Browser
Search: [ help ]  
39427 Charlottebronte (3360 T-2)
Classification: Outer Main-belt Asteroid          SPK-ID: 2039427
Ephemeris | Orbit Diagram | Orbital Elements | Physical Parameters | Discovery Circumstances | Close-Approach Data ]

[ show orbit diagram ]
Orbital Elements at Epoch 2457000.5 (2014-Dec-09.0) TDB
Reference: JPL 14 (heliocentric ecliptic J2000)
 Element Value Uncertainty (1-sigma)   Units 
e .1875923075293974 6.0652e-08  
a 3.974888340212422 7.25e-08 AU
q 3.229229864300277 2.3555e-07 AU
i 3.874609370721278 8.5418e-06 deg
node 68.5668151330264 9.4393e-05 deg
peri 243.0277020864397 9.7367e-05 deg
M 105.3348865834015 2.4519e-05 deg
tp 2456153.554318407624
(2012-Aug-14.05431841)
0.00019545 JED
period 2894.581797758361
7.92
7.9194e-05
2.168e-07
d
yr
n .1243702977330934 3.4027e-09 deg/d
Q 4.720546816124567 8.6101e-08 AU
  Orbit Determination Parameters
   # obs. used (total)      838  
   data-arc span      15125 days (41.41 yr)  
   first obs. used      1973-09-19  
   last obs. used      2015-02-16  
   planetary ephem.      DE431  
   SB-pert. ephem.      SB431-BIG16  
   condition code      0  
   fit RMS      .53725  
   data source      ORB  
   producer      Otto Matic  
   solution date      2015-Mar-09 16:01:23  

Additional Information
 Earth MOID = 2.21857 AU 
 T_jup = 3.022 
[ show covariance matrix ]

Ephemeris | Orbit Diagram | Orbital Elements | Physical Parameters | Discovery Circumstances | Close-Approach Data ]

Physical Parameter Table
Parameter Symbol Value Units Sigma Reference Notes
absolute magnitude H 12.5 mag n/a MPO267838  

39427 Charlottebrontë           Discovered 1973 Sept. 25 by C. J. van Houten and I. van Houten-Groeneveld on Palomar Schmidt plates taken by T. Gehrels.
Charlotte Brontë (1816-1855) was a renowned English novelist and poet, best known for her remarkable work Jane Eyre.
NOTE: some special characters may not display properly (any characters within {} are an attempt to place the proper accent above a character)
Reference: 20060219/MPCPages.arcLast Updated: 2010-06-03

[ show close-approach data ]
Alternate Designations
 3360 T-2 = 1997 TF28 = 1998 XV8 = 2001 DF32 
Ephemeris | Orbit Diagram | Orbital Elements | Physical Parameters | Discovery Circumstances | Close-Approach Data ]
ABOUT SSD CREDITS/AWARDS PRIVACY/COPYRIGHT GLOSSARY LINKS
FirstGov 2015-Mar-31 02:03 UT
(server date/time)  
NASA Home Page
Site Manager:   Ryan S. Park
Webmaster  Alan B. Chamberlin